Location: Chisholm
(54.9102°N, 114.1701°W)
Time: 10:22:08
(UTC+00:00)

N. Korean satellite - Pass Details

Date: 09 December 2021
Orbit: 447 x 491 km, 97.3° (Epoch: 24 January)

Event Time Altitude Azimuth Distance (km) Brightness Sun altitude
Rises 13:23:58 0° 11° (N) 2,470 10.1 -19.3°
Reaches altitude 10° 13:26:02 10° 8° (N) 1,590 9.1 -19.0°
Maximum altitude 13:29:23 60° 288° (WNW) 520 6.3 -18.5°
Drops below altitude 10° 13:32:43 10° 208° (SSW) 1,577 9.0 -18.0°
Sets 13:34:45 0° 205° (SSW) 2,447 10.0 -17.8°
